Wind_Speed
21 21 19 14 10 7 13 16 13 16 14 12 10 10 11 13 12 10 7 8 8 10 13 15 16 17 19 19 20 18 25 32 32 42 46 47 47 49 50 51 53 49 46 43
18 17 16 17 9 12 14 19 15 12 8 9 12 11 10 8 7 7 6 6 9 11 14 15 16 17 20 24 24 25 30 34 38 45 50 51 52 51 51 52 49 46 42 42
16 11 11 12 14 15 15 19 18 15 13 13 13 10 9 8 7 8 9 11 14 16 18 20 21 22 26 29 32 35 36 37 42 47 48 51 53 56 56 52 52 49 48 49
19 14 17 18 18 19 15 17 19 20 20 16 15 14 10 8 9 10 13 16 19 20 21 22 22 25 28 30 33 33 35 38 43 48 47 46 55 54 53 50 49 48 51 53
23 23 23 23 22 18 12 16 16 17 19 19 14 15 10 13 14 17 17 18 19 21 21 22 24 27 26 26 31 35 36 41 48 44 42 52 51 47 48 51 51 53 55 57
25 20 19 20 19 17 14 13 14 14 15 16 14 16 9 12 13 13 14 16 17 18 19 22 25 27 28 27 34 32 43 35 40 51 51 50 49 48 49 50 53 56 57 61
19 18 16 17 17 16 16 15 16 17 17 14 11 11 8 9 10 10 11 14 15 17 19 22 24 25 26 33 35 36 42 50 53 52 49 48 48 48 50 53 55 58 61 63
16 18 17 15 14 17 16 17 17 15 10 7 5 4 5 6 6 6 7 9 11 14 17 19 22 25 28 32 36 39 42 45 46 48 50 50 49 52 54 56 59 61 63 68
19 18 16 16 16 17 17 16 11 9 5 2 1 0 1 1 4 5 7 9 10 12 15 18 21 23 26 30 33 37 41 43 44 48 49 52 53 54 57 58 60 63 68 72
17 17 17 17 18 17 15 12 9 7 4 3 2 4 5 6 7 7 9 11 13 15 17 20 23 26 29 32 36 39 42 45 47 49 51 52 55 57 59 61 64 69 74 78
17 18 17 18 17 15 13 11 10 8 6 6 6 5 7 9 10 12 13 15 17 19 21 23 26 28 30 33 37 39 41 44 47 51 53 55 57 59 61 64 69 75 79 84
17 17 15 15 16 16 15 14 12 12 11 11 12 10 13 15 16 18 18 19 21 24 26 28 31 33 35 39 41 43 45 47 50 53 56 57 58 60 64 68 74 79 84 89
17 16 16 16 16 16 16 16 16 16 15 13 15 18 18 20 21 22 23 24 27 29 31 34 38 40 42 43 45 46 47 49 52 54 57 58 59 63 67 73 78 83 87 89
17 17 17 17 18 20 19 19 17 17 17 18 16 20 24 25 26 27 29 30 32 34 35 37 40 43 45 47 48 49 49 50 54 57 58 59 63 67 72 76 81 85 87 88
19 18 19 20 21 22 20 19 19 19 21 23 22 24 29 31 31 32 33 35 36 37 38 40 43 46 48 49 50 51 52 54 56 58 59 63 66 71 75 80 84 84 87 88
18 19 22 22 23 24 23 22 21 23 26 28 30 27 35 35 36 37 38 39 40 41 43 45 47 48 49 50 52 53 55 56 57 59 62 66 70 75 79 82 83 85 87 89
17 20 22 24 26 28 27 23 27 29 30 33 34 35 38 39 40 40 41 42 44 44 45 48 50 51 51 52 53 55 56 57 59 61 64 69 74 78 79 81 84 86 88 90
17 21 24 25 28 31 25 27 31 35 36 38 39 41 43 43 43 42 43 45 46 47 49 50 52 52 53 53 55 56 58 59 61 64 68 72 76 78 80 84 85 87 89 84
17 20 23 27 28 29 28 30 33 37 38 41 42 45 46 46 46 44 47 47 49 50 51 51 52 53 54 55 56 58 59 60 63 67 71 74 77 80 83 83 85 88 82 73
20 22 24 26 28 29 27 29 33 36 37 39 42 44 46 47 47 47 48 50 50 51 51 52 53 54 56 58 58 58 60 62 66 70 73 75 80 83 82 84 86 80 72 69
23 26 27 27 30 30 31 32 35 38 42 44 45 45 45 46 48 49 50 50 50 51 52 53 54 56 57 57 57 62 63 66 70 72 75 80 84 83 83 85 81 71 68 64
21 24 25 27 30 35 36 37 40 42 44 45 45 45 46 48 50 51 51 50 51 52 54 55 56 57 57 59 60 64 68 70 74 76 80 82 84 83 84 81 71 66 66 57
25 27 29 29 31 36 40 42 44 44 45 46 47 47 48 49 50 50 51 52 53 55 56 56 57 59 62 63 65 70 73 75 78 81 82 83 85 85 80 72 64 64 60 49
31 32 34 36 35 40 44 44 45 45 45 46 47 47 48 49 49 51 53 55 56 56 58 57 60 64 65 64 68 72 76 78 81 82 84 85 84 78 72 63 61 60 51 41
34 36 39 41 41 45 42 42 43 43 44 45 45 47 48 50 51 53 54 54 55 56 56 58 64 66 67 68 72 74 80 83 82 83 84 81 77 72 64 59 59 53 43 36
37 40 43 43 42 42 39 39 40 41 43 45 47 49 50 51 51 51 52 55 56 57 59 61 64 65 69 72 72 80 85 84 83 81 79 77 72 64 59 57 53 45 38 34
Wind_Direction
195 166 166 173 180 196 193 200 206 215 213 209 212 213 221 229 242 232 236 235 253 268 271 269 267 273 279 284 280 280 269 273 282 290 303 309 312 314 316 316 317 314 309 304
182 200 209 204 218 217 209 201 208 218 239 237 226 217 218 223 247 253 254 273 275 279 279 282 290 295 294 295 292 285 285 288 298 304 304 309 310 311 310 308 310 306 308 309
200 221 230 234 208 212 211 212 217 218 235 241 237 234 226 240 256 273 283 288 291 292 288 292 299 293 293 288 287 292 293 298 302 302 303 306 312 314 314 315 312 311 310 310
208 234 226 215 216 223 225 235 241 240 235 249 249 247 249 267 280 279 279 282 285 289 291 295 306 296 297 295 288 299 295 296 300 301 294 300 308 308 306 305 304 305 304 302
227 235 232 217 220 215 237 237 241 240 239 249 268 287 297 293 292 288 286 287 291 294 300 301 294 294 289 291 285 292 298 298 308 301 295 300 303 299 299 300 298 296 296 297
224 224 215 208 213 240 255 246 245 252 261 270 288 286 304 297 284 282 282 285 288 292 290 288 289 291 291 296 295 295 290 293 294 294 296 300 303 300 296 294 292 294 297 301
200 202 199 213 236 236 239 242 249 255 264 277 272 284 311 283 275 277 279 279 284 291 293 296 299 300 295 292 294 291 290 291 296 299 302 300 294 291 293 295 297 300 302 304
208 218 224 232 236 237 243 248 255 261 263 268 275 292 282 282 288 297 300 307 305 303 303 305 309 313 311 307 304 302 300 299 299 302 302 295 292 295 297 299 301 302 305 308
218 222 225 230 236 243 251 253 245 247 244 234 190 102 326 309 326 344 352 350 340 328 321 318 316 312 310 308 306 305 303 302 303 299 294 294 297 298 299 301 303 306 309 308
225 230 229 230 234 239 236 235 223 223 218 197 259 289 295 299 324 333 331 329 326 320 317 315 316 312 309 309 310 310 307 304 300 298 298 299 300 302 304 305 307 308 308 309
232 235 234 235 232 223 223 213 217 224 227 267 295 299 307 308 309 311 312 313 315 316 312 309 308 308 306 304 304 306 306 305 304 302 302 303 303 304 305 307 308 309 310 312
232 236 233 229 218 218 208 211 223 235 256 282 296 298 300 302 306 308 307 307 307 310 309 307 308 309 310 311 311 310 310 311 308 307 305 303 304 305 307 308 309 311 313 313
227 231 230 229 227 222 216 223 237 247 266 286 294 296 297 297 300 305 302 303 305 308 311 314 314 312 312 312 311 310 310 311 308 305 304 304 306 307 307 309 312 312 311 313
230 230 230 229 226 222 226 234 246 259 275 279 294 292 297 295 300 302 301 300 301 304 308 311 312 312 311 310 310 310 310 309 307 306 306 306 307 308 309 310 310 311 314 315
232 231 229 231 229 231 239 246 258 270 277 282 285 291 293 294 297 297 300 299 299 299 303 306 308 309 308 309 310 309 307 309 310 309 308 307 307 308 309 310 312 315 316 317
230 224 229 234 237 240 244 253 264 270 274 280 282 288 288 293 296 298 299 301 300 300 301 302 304 306 307 309 308 307 308 310 310 309 307 306 307 308 310 312 315 316 318 318
237 236 240 242 246 250 252 261 267 270 276 279 283 287 289 292 294 297 299 300 300 299 297 297 301 304 307 308 307 308 309 309 309 307 307 308 309 310 313 315 317 319 319 317
247 248 249 252 252 258 266 264 268 274 277 281 285 287 289 291 294 296 296 296 297 296 296 298 300 305 307 306 306 308 308 308 308 307 308 309 313 316 318 319 319 319 318 319
256 258 259 260 262 267 271 272 272 274 277 281 284 285 287 290 293 295 295 297 297 297 297 299 301 305 306 305 306 306 308 307 307 308 311 314 316 319 320 319 319 318 320 320
261 265 268 272 274 278 280 278 278 280 282 280 282 285 288 291 293 294 296 297 297 298 299 301 304 304 303 304 306 308 307 308 309 312 314 316 319 321 319 319 319 320 319 321
266 272 278 281 280 285 288 288 287 286 286 287 288 289 291 292 292 294 296 297 298 299 302 302 302 302 304 305 306 305 306 310 313 313 314 316 320 321 320 320 320 318 319 320
274 276 278 280 285 287 289 289 287 288 288 290 291 292 292 293 294 296 298 298 299 300 300 302 304 304 305 306 305 307 310 309 314 314 314 317 322 321 321 320 319 318 320 319
277 280 284 287 287 286 288 290 291 291 292 292 293 293 294 295 296 297 298 299 300 301 302 303 304 305 307 308 306 307 305 309 313 314 317 320 322 320 319 318 318 319 320 318
286 290 290 290 286 288 290 293 294 294 294 293 294 295 295 295 296 298 299 301 301 304 305 305 306 307 308 307 306 301 303 310 314 315 318 321 320 319 319 319 320 321 319 317
291 289 288 289 287 290 292 292 291 290 291 293 293 294 296 298 299 300 300 301 303 304 306 302 303 306 307 305 299 300 308 313 314 317 320 320 319 319 320 320 322 321 318 315
288 288 288 291 290 290 290 289 290 292 293 295 296 297 298 299 299 299 300 302 303 304 304 304 304 305 303 298 298 309 311 312 315 318 318 319 319 320 320 323 323 320 317 313
Height
5777 5781 5784 5787 5788 5791 5793 5794 5797 5797 5799 5801 5804 5806 5807 5809 5810 5811 5811 5812 5811 5811 5811 5810 5810 5810 5809 5808 5806 5804 5802 5797 5792 5788 5783 5779 5776 5772 5768 5765 5761 5758 5755 5751
5777 5781 5783 5786 5788 5790 5791 5793 5795 5797 5799 5802 5803 5804 5806 5807 5808 5809 5808 5808 5808 5808 5808 5806 5806 5804 5803 5801 5799 5799 5797 5794 5789 5782 5778 5772 5768 5765 5763 5760 5755 5751 5745 5740
5778 5781 5782 5785 5787 5788 5790 5791 5794 5796 5798 5800 5801 5803 5804 5805 5805 5805 5805 5804 5804 5804 5803 5801 5800 5799 5798 5795 5793 5790 5788 5786 5782 5777 5770 5763 5757 5752 5749 5744 5740 5736 5732 5729
5776 5779 5781 5783 5785 5788 5789 5791 5793 5795 5797 5798 5800 5801 5801 5801 5801 5802 5801 5801 5799 5798 5797 5795 5795 5793 5790 5788 5786 5783 5781 5779 5775 5770 5764 5759 5754 5749 5744 5739 5735 5730 5726 5722
5776 5777 5780 5782 5785 5788 5789 5790 5792 5793 5794 5795 5796 5795 5796 5795 5795 5795 5795 5794 5793 5791 5791 5791 5789 5787 5785 5782 5779 5776 5773 5769 5765 5761 5756 5752 5749 5744 5738 5732 5728 5723 5718 5711
5774 5777 5779 5782 5785 5786 5787 5788 5789 5790 5790 5791 5792 5791 5791 5790 5789 5789 5788 5788 5787 5787 5786 5785 5783 5780 5778 5775 5772 5769 5766 5761 5757 5753 5748 5743 5738 5732 5727 5722 5718 5712 5705 5697
5773 5775 5778 5781 5782 5783 5785 5786 5787 5788 5788 5788 5788 5787 5787 5785 5785 5784 5784 5783 5782 5781 5780 5778 5776 5774 5772 5768 5766 5762 5759 5754 5749 5744 5738 5733 5729 5724 5718 5712 5706 5698 5691 5684
5772 5775 5776 5778 5779 5780 5781 5783 5783 5783 5784 5784 5784 5784 5784 5782 5781 5781 5780 5779 5778 5777 5775 5773 5771 5768 5765 5762 5758 5755 5750 5745 5740 5734 5729 5723 5718 5713 5707 5700 5693 5686 5678 5669
5769 5771 5773 5774 5775 5777 5778 5778 5780 5780 5781 5781 5782 5782 5781 5780 5779 5779 5778 5777 5775 5774 5772 5769 5767 5764 5760 5756 5752 5747 5741 5735 5729 5724 5718 5713 5707 5701 5695 5688 5680 5672 5663 5655
5767 5768 5770 5771 5772 5774 5775 5776 5778 5778 5779 5779 5780 5780 5779 5778 5777 5776 5775 5773 5771 5769 5767 5764 5761 5757 5753 5749 5743 5738 5731 5725 5719 5713 5708 5702 5696 5689 5682 5674 5666 5659 5650 5639
5763 5765 5767 5767 5769 5770 5772 5773 5775 5776 5777 5777 5777 5777 5776 5774 5774 5772 5771 5769 5767 5764 5761 5758 5754 5750 5745 5740 5735 5729 5723 5717 5711 5704 5697 5691 5684 5676 5669 5660 5652 5642 5631 5620
5759 5760 5762 5764 5765 5766 5768 5771 5772 5773 5774 5773 5773 5774 5771 5770 5769 5767 5765 5763 5760 5758 5755 5751 5747 5741 5736 5730 5725 5718 5712 5706 5699 5693 5686 5678 5671 5663 5654 5645 5636 5625 5613 5601
5756 5758 5759 5761 5764 5765 5767 5768 5769 5769 5769 5769 5769 5768 5765 5764 5763 5761 5759 5756 5753 5750 5746 5741 5736 5731 5726 5720 5714 5708 5702 5695 5688 5681 5673 5666 5657 5649 5640 5630 5620 5608 5597 5584
5752 5755 5757 5759 5761 5762 5764 5765 5765 5765 5765 5764 5765 5762 5760 5759 5757 5755 5751 5748 5745 5741 5736 5731 5726 5721 5715 5710 5704 5697 5690 5683 5676 5668 5661 5653 5644 5635 5626 5616 5605 5593 5579 5566
5749 5752 5754 5755 5757 5759 5760 5761 5761 5761 5760 5759 5759 5757 5754 5752 5751 5748 5745 5740 5736 5732 5727 5721 5715 5710 5704 5698 5692 5685 5678 5671 5663 5655 5648 5640 5632 5623 5612 5601 5588 5575 5561 5547
5746 5748 5750 5752 5753 5755 5756 5757 5757 5756 5755 5753 5751 5752 5745 5744 5742 5739 5735 5730 5726 5721 5716 5711 5705 5699 5693 5687 5681 5673 5666 5658 5651 5643 5636 5628 5619 5608 5596 5583 5571 5558 5544 5529
5743 5745 5746 5748 5749 5749 5750 5754 5751 5750 5749 5747 5745 5743 5739 5736 5733 5729 5725 5720 5716 5711 5706 5701 5695 5689 5683 5676 5668 5661 5653 5646 5639 5631 5622 5613 5603 5591 5579 5567 5554 5540 5527 5512
5739 5741 5742 5743 5744 5742 5747 5747 5744 5742 5741 5738 5736 5733 5729 5726 5723 5720 5715 5710 5706 5700 5695 5690 5684 5678 5671 5664 5657 5649 5642 5634 5626 5618 5608 5598 5587 5575 5563 5550 5536 5522 5508 5492
5736 5736 5736 5736 5737 5737 5739 5738 5737 5734 5734 5730 5727 5722 5719 5716 5713 5709 5704 5700 5694 5689 5683 5677 5672 5666 5658 5651 5644 5637 5629 5621 5612 5604 5593 5583 5572 5559 5545 5533 5519 5503 5489 5476
5730 5730 5731 5731 5729 5729 5731 5730 5727 5724 5722 5719 5716 5713 5709 5705 5702 5697 5693 5687 5682 5676 5671 5665 5659 5653 5646 5639 5631 5623 5615 5607 5598 5588 5578 5567 5555 5543 5529 5515 5501 5487 5474 5463
5724 5723 5723 5723 5721 5721 5721 5719 5716 5714 5713 5707 5704 5702 5699 5695 5690 5685 5680 5675 5670 5664 5659 5653 5646 5640 5632 5625 5617 5610 5602 5592 5582 5572 5561 5550 5539 5526 5512 5498 5485 5472 5461 5450
5718 5717 5717 5716 5715 5712 5710 5708 5706 5703 5699 5696 5693 5690 5686 5682 5677 5672 5667 5662 5657 5652 5646 5640 5633 5626 5619 5611 5604 5597 5587 5577 5566 5556 5545 5534 5521 5509 5495 5482 5470 5459 5448 5438
5712 5711 5710 5710 5708 5702 5698 5696 5693 5691 5688 5684 5681 5677 5673 5669 5664 5659 5654 5649 5645 5639 5633 5626 5620 5612 5605 5597 5589 5581 5571 5562 5551 5540 5529 5518 5505 5494 5481 5469 5457 5447 5435 5426
5703 5702 5700 5698 5696 5691 5687 5685 5682 5678 5675 5672 5668 5664 5660 5656 5652 5647 5642 5637 5631 5625 5618 5611 5605 5598 5590 5582 5574 5565 5556 5546 5534 5524 5513 5502 5490 5478 5466 5454 5444 5434 5424 5417
5694 5691 5688 5686 5683 5680 5678 5675 5672 5668 5665 5661 5657 5653 5649 5645 5640 5634 5629 5623 5617 5611 5605 5599 5592 5584 5576 5567 5558 5549 5540 5529 5519 5508 5497 5486 5475 5463 5452 5442 5432 5422 5414 5408
5682 5679 5676 5674 5672 5669 5667 5664 5661 5658 5654 5650 5646 5641 5637 5632 5626 5621 5616 5609 5604 5598 5592 5585 5577 5569 5560 5551 5542 5533 5523 5514 5504 5493 5482 5471 5459 5448 5439 5430 5421 5412 5405 5400